User: anonymous   Login
Location: Unspecified
(0.0000°N, 0.0000°E)
Time: 14:27:18
(UTC+00:00)
Language:

Cosmos 1312 - Orbit

View from above orbital plane
View from above orbital plane
View from above satellite
View from above satellite

Ground track
Ground track

The orbit data is extracted from the following two-line orbital elements,

1 12879U 81098A   18113.86859541  .00000024  00000-0  10275-3 0  9997
2 12879  82.5995 251.2563 0008096 124.7625 350.6490 12.42347301658161
Epoch (UTC): 23 April 2018 20:50:46
Eccentricity: 0.0008096
inclination: 82.5995°
perigee height: 1490 km
apogee height: 1503 km
right ascension of ascending node: 251.2563°
argument of perigee: 124.7625°
revolutions per day: 12.42347301
mean anomaly at epoch: 350.6490°
orbit number at epoch: 65816

The dashed part of the orbit path shows where the satellite is in the earth's shadow,  

DLR